Location: Daouli
(14.8671°N, 3.2030°W)
Time: 16:55:14
(UTC+00:00)

Cosmos 1346 Rocket - Pass Details

Date: 29 October 2020
Orbit: 535 x 543 km, 81.2° (Epoch: 22 November)

Event Time Altitude Azimuth Distance (km) Brightness Sun altitude
Rises 19:13:06 0° 348° (NNW) 2,694 6.4 -21.7°
Reaches altitude 10° 19:15:16 10° 345° (NNW) 1,802 5.5 -22.2°
Maximum altitude 19:19:10 59° 266° (W) 629 3.3 -23.1°
Drops below altitude 10° 19:23:04 10° 186° (S) 1,799 5.6 -24.0°
Sets 19:25:15 0° 182° (S) 2,689 6.5 -24.6°
